FENGYUN 1C DEB, 37474

Orbit data source: Space-Track

FENGYUN 1C DEB, 37474 is space debris in SSO originally from a launch on Mon, 10 May 1999 UTC launched from the Taiyaun Space Center, China (TSC). Fengyun 1C debris stems from the Chinese weather satellite Fengyun-1C, which was intentionally destroyed by a Chinese anti-satellite missile in 2007. This event dramatically increased the amount of space debris, with thousands of trackable fragments posing hazards to satellites and human spaceflight. The Fengyun 1C debris cloud has become a focal point in discussions about space sustainability and the need for international regulations to prevent the creation of new debris.

Loading next visibility...
Identifier
37474, 1999-025EJU
Orbit
SSO
Country
Flag of CNCN / PRC
Related business
Manufacturer
Unknown
Mission
Spacecraft
Bus & Motor
Unknown
Mass
Unknown
Launch date (UTC)
1999-05-10 (27 years ago)
Launch vehicle
Unknown
Launch site
Taiyaun Space Center, China (TSC)
Object type
Payload
Rocket body
Debris
Shape & HBR
Unknown shape, 0.1 m
Radar Cross Section
Small (<0.1 m²)

Expand to show TLE details & history
Last TLE update: 1 week ago

TLE from 1 week ago
0 FENGYUN 1C DEB
1 37474U 99025EJU 26154.86788186  .00009507  00000-0  11488-2 0  9995
2 37474  99.1494  28.3159 0123782 316.1785  42.9651 14.78634424649318
Epoch: 2026-06-03T20:49Z
TLE epoch observation values (Epoch: 2026-06-03T20:49:44.992Z)
Latitude
-0.00007°
Longitude
-176.44189°
Altitude
573.598 km
Speed
7.608 km/s
True Right ascension
01h 53m 15s
True Declination
0° 00' 00"
Sunlit
Object was in daylight at epoch
Visualization orbit readout
Latitude
Unknown
Longitude
Unknown
Altitude
Unknown
Speed
Unknown
Apparent Right ascension
Unknown
Apparent Declination
Unknown
Sunlit
N/A
Visualization observer readout
Local Sidereal Time
01:54:09
Azimuth
Unknown
Elevation
Unknown
Doppler factor
Unknown
Orbital elements
Apogee altitude
717.497 km
Perigee altitude
543.983 km
Semi-major axis
7,008.877 km
Eccentricity
0.01238
Inclination
99.1494°
RAAN
28.3159°
Arg. of periapsis
316.1785°
True anomaly
43.94286°
Mean anomaly
42.9651°
Eccentric anomaly
43.45287°
Mean motion
3.69888 °/min
Orbital period
97.33 mins
BSTAR
0.0011488
Loading maneuver chart data...
Computing Atmospheric mass density...
Loading historical data...
Loading historical data...
Loading historical data...
Loading historical data...
Loading historical data...
Loading historical data...
Loading historical data...

Documentation

Showing up to 5 results
|